• Join FlightAware (Why Join?)
  • Login
  • US Flag 
03:42PM EST


 

Airport Tracker/Info


-or-


 

Live Flight TrackerFlight Track Log ✈ EJM291 ✈ 15-Jun-2014 ✈ KRNO - KSNA

Flight Track Log - Related Links

Times and Time Zones

All times are in EDT time to prevent confusion due to time zone crossing. See the EJM291 flight status page for this flight to view local times or setup timezone preferences in your user account.

Time Position Orientation Groundspeed Altitude Reporting Facility
EDT Latitude Longitude Course Direction KTS MPH feet Rate Location/Type
06:36PM 39.5833 -119.7833 360° North 194 223 9,800  Level Northern Cal TRACON
06:39PM 39.4978 -119.6519 130° Southeast 273 314 17,200 3,000 Climbing Oakland Center
06:40PM 39.4161 -119.6536 181° South 288 331 20,300 3,268 Climbing Oakland Center
06:41PM 39.0229 -119.6333 180° South  Level FlightAware Approximate
06:41PM 39.3119 -119.6514 179° South 309 356 23,900  Level Oakland Center
06:42PM 39.2203 -119.6489 179° South 323 372 26,400 2,341 Climbing Oakland Center
06:43PM 39.1233 -119.6464 179° South 341 392 28,700 2,098 Climbing Oakland Center
06:44PM 39.0239 -119.6436 179° South 352 405 30,700 1,951 Climbing Oakland Center
06:45PM 38.9203 -119.6406 179° South 367 422 32,700 1,951 Climbing Oakland Center
06:46PM 38.8156 -119.6386 179° South 371 427 34,700 1,756 Climbing Oakland Center
06:47PM 38.7142 -119.6350 178° South 371 427 36,300 1,122 Climbing Oakland Center
06:48PM 38.5869 -119.6325 179° South 379 436 37,000 341 Climbing Oakland Center
06:49PM 38.4681 -119.6306 179° South 415 478 37,000  Level Oakland Center
06:50PM 38.3489 -119.6281 179° South 425 489 37,000  Level Oakland Center
06:51PM 38.2328 -119.6242 178° South 424 488 37,000  Level Oakland Center
06:52PM 38.1183 -119.6208 179° South 416 479 37,000  Level Oakland Center
06:53PM 38.0008 -119.6175 179° South 417 480 37,000  Level Oakland Center
06:55PM 37.7694 -119.6142 179° South 420 483 37,000  Level Los Angeles Center
06:56PM 37.6556 -119.6164 181° South 413 475 37,000  Level Los Angeles Center
06:57PM 37.5406 -119.6033 175° South 412 474 37,000  Level Los Angeles Center
06:58PM 37.4289 -119.6039 180° South 405 466 37,000  Level Los Angeles Center
06:59PM 37.3169 -119.6008 179° South 402 463 37,000  Level Los Angeles Center
07:00PM 37.1792 -119.5989 179° South 411 473 37,000  Level Oakland Center
07:01PM 37.0647 -119.5969 179° South 412 474 37,000  Level Oakland Center
07:02PM 36.9514 -119.6003 181° South 411 473 37,000  Level Oakland Center
07:03PM 36.8369 -119.6011 180° South 410 472 37,000  Level Oakland Center
07:04PM 36.6992 -119.6028 181° South 411 473 37,000  Level Oakland Center
07:05PM 36.5867 -119.6053 181° South 408 470 37,000  Level Oakland Center
07:07PM 36.4739 -119.6072 181° South 407 468 37,000  Level Oakland Center
07:08PM 36.3617 -119.6078 180° South 405 466 37,000  Level Oakland Center
07:09PM 36.2492 -119.6103 181° South 405 466 37,000  Level Oakland Center
07:10PM 36.1383 -119.6128 181° South 402 463 37,000  Level Oakland Center
07:11PM 36.0264 -119.6144 181° South 402 463 37,000  Level Oakland Center
07:12PM 35.9172 -119.6172 181° South 395 455 37,000  Level Oakland Center
07:13PM 35.7867 -119.6222 182° South 393 452 37,000  Level Oakland Center
07:14PM 35.6778 -119.6261 182° South 392 451 37,000  Level Oakland Center
07:15PM 35.5694 -119.6303 182° South 390 449 37,000  Level Oakland Center
07:16PM 35.4611 -119.6347 182° South 389 448 37,000  Level Oakland Center
07:17PM 35.3503 -119.6375 181° South 390 449 37,000  Level Los Angeles Center
07:18PM 35.2394 -119.6239 174° South 406 467 37,000  Level Los Angeles Center
07:19PM 35.1194 -119.5256 146° Southeast 429 494 37,000  Level Los Angeles Center
07:20PM 35.0219 -119.4403 144° Southeast 431 496 37,000 -96 Level Los Angeles Center
07:21PM 34.9231 -119.3553 145° Southeast 431 496 36,800 -1,016 Descending Los Angeles Center
07:22PM 34.8247 -119.2742 146° Southeast 431 496 34,900 -1,951 Descending Los Angeles Center
07:23PM 34.7275 -119.1911 145° Southeast 429 494 32,800 -2,160 Descending Los Angeles Center
07:24PM 34.6272 -119.1067 145° Southeast 429 494 30,400 -2,352 Descending Los Angeles Center
07:25PM 34.5264 -119.0247 146° Southeast 431 496 27,900 -2,710 Descending Los Angeles Center
07:26PM 34.4072 -118.9247 145° Southeast 435 501 24,800 -2,758 Descending Los Angeles Center
07:27PM 34.3006 -118.8608 154° Southeast 424 488 22,200 -2,468 Descending Los Angeles Center
07:28PM 34.1925 -118.8214 163° South 404 465 19,700 -2,565 Descending Los Angeles Center
07:29PM 34.0803 -118.7786 162° South 396 456 16,900 -2,565 Descending Los Angeles Center
07:30PM 33.9717 -118.7394 163° South 382 440 14,400 -1,381 Descending Los Angeles Center
07:31PM 33.8758 -118.7047 163° South 366 421 14,000 -194 Descending Los Angeles Center
07:32PM 33.7767 -118.6703 164° South 365 420 14,000 -927 Level Los Angeles Center
07:33PM 33.6844 -118.6372 163° South 350 403 12,100 -2,016 Descending Los Angeles Center
07:34PM 33.5975 -118.6050 163° South 331 381 9,800 -2,081 Descending Los Angeles Center
07:35PM 33.5583 -118.5228 120° Southeast 306 352 7,800 -2,129 Descending Los Angeles Center
07:37PM 33.5519 -118.4044 94° East 303 349 5,400 -1,355 Descending Los Angeles Center
07:38PM 33.5619 -118.3125 83° East 292 336 5,000 -194 Descending Los Angeles Center
07:39PM 33.5722 -118.2208 82° East 286 329 5,000  Level Los Angeles Center
07:40PM 33.5825 -118.1269 82° East 286 329 5,000  Level Los Angeles Center
07:41PM 33.6281 -118.0447 56° Northeast 258 297 5,000  Level Los Angeles Center
07:42PM 33.6764 -117.9994 38° Northeast 230 265 5,000 -528 Level Los Angeles Center
07:43PM 33.7206 -117.9572 38° Northeast 215 247 3,900 -960 Descending Los Angeles Center
07:44PM 33.7564 -117.9139 45° Northeast 198 228 3,000 -774 Descending Los Angeles Center
07:45PM 33.7636 -117.8672 79° East 167 192 2,300 -919 Descending Los Angeles Center
07:46PM 33.7328 -117.8394 143° Southeast 140 161 1,100 -871 Descending Los Angeles Center
07:47PM 33.7031 -117.8517 199° South 124 143 500 -387 Descending Los Angeles Center
07:48PM 33.6764 -117.8667 205° Southwest 121 139 300 -194 Descending Los Angeles Center
07:50PM 33.6757 -117.8682 132° Southeast  Level Estimated